BREEZE-KM R/B, 41336

Orbit data source: Space-Track

BREEZE-KM R/B, 41336 is space debris in SSO originally from a launch on Tue, 16 Feb 2016 UTC launched from the Plesetsk Missile And Space Complex (PKMTR). Debris objects in space refer to the collection of defunct objects orbiting the Earth. Examples of debris include non-operational satellites, rocket bodies, and fragments generated from explosions, collisions, or faulty payload assembly.

Loading next visibility...
Identifier
41336, 2016-011B
Orbit
SSO
Last TLE update
12 hours ago
Origin
Manufacturer
Khrunichev
Mission
Spacecraft
Bus & Motor
BRIZ, S5.92
Mass
2,370 kg wet, 2,370 kg dry
Launch date (UTC)
2016-02-16 (9 years ago)
Launch vehicle
Unknown
Launch site
Plesetsk Missile And Space Complex (PKMTR)
Object type
Payload
Rocket body
Debris
Shape & HBR
Hex Cyl + 1 Rod, 4.1 m
Radar Cross Section
10.190 m², Large (>1 m²)

Expand to show TLE details & history

TLE from 12 hours ago
0 BREEZE-KM R/B
1 41336U 16011B   25191.60267980  .00006380  00000-0  19590-3 0  9996
2 41336  98.6797   4.0532 0156188 167.9300 192.5746 15.23015984515355
Epoch: 2025-07-10T14:27Z
TLE epoch observation values (Epoch: 2025-07-10T14:27:51.534Z)
Latitude
-0.00001°
Longitude
-141.67812°
Altitude
604.708 km
Speed
7.499 km/s
True Right ascension
00h 16m 12s
True Declination
0° 00' 00"
Sunlit
Object was in daylight at epoch
Visualization orbit readout
Latitude
-72.31362°
Longitude
-112.65422°
Altitude
574.89 km
Speed
7.544 km/s
Apparent Right ascension
02h 46m 29s
Apparent Declination
-56° 48' 12"
Sunlit
Object is in daylight
Visualization observer readout
Local Sidereal Time
15:01:14
Azimuth
173.11° S
Elevation
-72.942°
Doppler factor
1
Orbital elements
Apogee altitude
601.1 km
Perigee altitude
386.438 km
Semi-major axis
6,871.906 km
Eccentricity
0.01562
Inclination
98.6797°
RAAN
4.0532°
Arg. of periapsis
167.93°
True anomaly
Unknown
Mean anomaly
192.5746°
Eccentric anomaly
Unknown
Mean motion
3.81002 °/min
Orbital period
94.49 mins
BSTAR
0.0001959
Loading maneuver chart data...
Loading SW <> Apogee altitude chart data...
Loading historical data...
Loading historical data...
Loading historical data...
Loading historical data...
Loading historical data...
Loading historical data...
Loading historical data...
Other satellites on launch #11 in the year 2016 (2016-02-16 UTC)

BREEZE-KM R/B Visibility forecast

Observer location: undefined°, undefined°

Span
Click to sort rows by Start time (UTC) header in descending order
Start Az.
Max El. time (UTC)
Max El. Az.
Max El.
End time (UTC)
End Az.
6 mins2025-07-11 11:05:37.715Z142.425° SSE2025-07-11 11:08:37.715Z89° E34.485°2025-07-11 11:11:37.715Z6.203° NNE
4 mins2025-07-12 00:09:37.715Z37.288° NE2025-07-12 00:11:37.715Z105.599° ESE32.764°2025-07-12 00:13:37.715Z166.307° S
|